sat.trackr.live / text

‹ back to catalog

STARLINK-34664

NORAD 64806 · 2025-150S

PAYLOAD ACTIVE UNKNOWN

§ Identity

Operator
Country
US
Launch date
2025-07-16
Launch site
AFWTR
Launch vehicle
Mass (kg)
RCS (m²)

Purposes: comms

External: N2YO · Heavens-Above · Gunter

§ Orbital elements

Epoch: 2026-09-20T13:49:34.932000Z

Period
96.11 min
Inclination
70.0027°
Eccentricity
0.0003348
Mean motion
14.98335264 rev/d
Perigee alt
569.7 km
Apogee alt
574.4 km
Semi-major
6,950.2 km
B*
1.5054e-4
RAAN
2.8839°
Arg perigee
269.1934°
Mean anomaly
90.8841°
Rev number
6,571

§ Raw data

STARLINK-346641 64806U 25150S   26263.57609875  .00001704  00000+0  15054-3 0  99922 64806  70.0027   2.8839 0003348 269.1934  90.8841 14.98335264 65718

JSON: /api/v1/satellites/64806 · /tle

For live sub-satellite position, see the globe view (requires WebGL).

§ Visibility from observer

Set your observer location to see the next 7 days of passes ≥ 10°. The values pass through the URL so the page stays shareable.

No JS? Fill the form by hand. The geolocation button needs JavaScript.